When you browse on this site, cookies collect data to enhance your experience and personalize the content and advertising you see.
Visit our Privacy Policy to learn more. By continuing to use the site, you agree to this use of cookies and data.
  • In Austria
  • List of Countries
  • For 7 days
  • Water Temperature
  • Weather Map
  • News
  • Weather Widgets
  • user-avatar
    Login

    Hourly Weather Tolcayuca

    Today, 20 January, Monday

    Time Temperature Precipitation Wind Pressure Humidity
    00:00 +9°C° 0.2 mm 2 mps 578 mmHg 86%
    01:00 +9°C° 0.2 mm 2 mps 578 mmHg 87%
    02:00 +9°C° 0.2 mm 2 mps 578 mmHg 89%
    03:00 +9°C° 0.1 mm 2 mps 578 mmHg 88%
    04:00 +9°C° 0.1 mm 2 mps 578 mmHg 87%
    05:00 +9°C° 0.1 mm 2 mps 578 mmHg 87%
    06:00 +9°C° 0 mm 2 mps 579 mmHg 83%
    07:00 +10°C° 0 mm 2 mps 579 mmHg 80%
    08:00 +10°C° 0 mm 2 mps 579 mmHg 77%
    09:00 +10°C° 0 mm 2 mps 580 mmHg 74%
    10:00 +11°C° 0 mm 3 mps 580 mmHg 72%
    11:00 +11°C° 0 mm 3 mps 580 mmHg 69%
    12:00 +11°C° 0 mm 4 mps 580 mmHg 67%
    13:00 +12°C° 0 mm 4 mps 579 mmHg 65%
    14:00 +12°C° 0 mm 5 mps 579 mmHg 63%
    15:00 +12°C° 0 mm 4 mps 578 mmHg 66%
    16:00 +11°C° 0 mm 3 mps 578 mmHg 68%
    17:00 +10°C° 0 mm 3 mps 578 mmHg 71%
    18:00 +9°C° 0 mm 3 mps 578 mmHg 74%
    19:00 +9°C° 0 mm 3 mps 578 mmHg 78%
    20:00 +8°C° 0 mm 3 mps 578 mmHg 81%
    21:00 +8°C° 0 mm 2 mps 577 mmHg 81%
    22:00 +7°C° 0 mm 2 mps 577 mmHg 82%
    23:00 +8°C° 0 mm 1 mps 577 mmHg 82%

    Tomorrow, 21 January, Tuesday

    Time Temperature Precipitation Wind Pressure Humidity
    00:00 +8°C° 0 mm 1 mps 577 mmHg 84%
    01:00 +7°C° 0 mm 1 mps 576 mmHg 87%
    02:00 +7°C° 0 mm 1 mps 576 mmHg 89%
    03:00 +7°C° 0 mm 1 mps 576 mmHg 89%
    04:00 +7°C° 0 mm 1 mps 575 mmHg 89%
    05:00 +6°C° 0 mm 0 mps 575 mmHg 89%
    06:00 +6°C° 0 mm 0 mps 576 mmHg 86%
    07:00 +7°C° 0 mm 0 mps 576 mmHg 83%
    08:00 +8°C° 0 mm 0 mps 577 mmHg 79%
    09:00 +10°C° 0 mm 0 mps 577 mmHg 71%
    10:00 +13°C° 0 mm 1 mps 578 mmHg 63%
    11:00 +15°C° 0 mm 1 mps 579 mmHg 54%
    12:00 +16°C° 0 mm 1 mps 579 mmHg 48%
    13:00 +17°C° 0 mm 2 mps 579 mmHg 42%
    14:00 +18°C° 0 mm 3 mps 579 mmHg 35%
    15:00 +17°C° 0 mm 3 mps 578 mmHg 41%
    16:00 +16°C° 0 mm 3 mps 577 mmHg 46%
    17:00 +14°C° 0 mm 3 mps 577 mmHg 52%
    18:00 +13°C° 0 mm 3 mps 577 mmHg 60%
    19:00 +13°C° 0 mm 2 mps 576 mmHg 68%
    20:00 +11°C° 0 mm 1 mps 576 mmHg 77%
    21:00 +11°C° 0 mm 1 mps 576 mmHg 77%
    22:00 +11°C° 0 mm 1 mps 576 mmHg 77%
    23:00 +10°C° 0 mm 0 mps 575 mmHg 78%

    Day after tomorrow, 22 January, Wednesday

    Time Temperature Precipitation Wind Pressure Humidity
    00:00 +10°C° 0 mm 1 mps 575 mmHg 78%
    01:00 +10°C° 0 mm 1 mps 574 mmHg 78%
    02:00 +10°C° 0 mm 1 mps 574 mmHg 78%
    03:00 +10°C° 0 mm 1 mps 574 mmHg 78%
    04:00 +9°C° 0 mm 1 mps 573 mmHg 79%
    05:00 +9°C° 0 mm 1 mps 573 mmHg 79%
    06:00 +11°C° 0 mm 1 mps 574 mmHg 73%
    07:00 +12°C° 0 mm 1 mps 575 mmHg 68%
    08:00 +13°C° 0 mm 1 mps 576 mmHg 62%
    09:00 +15°C° 0 mm 2 mps 576 mmHg 55%
    10:00 +17°C° 0 mm 2 mps 576 mmHg 48%
    11:00 +18°C° 0 mm 3 mps 577 mmHg 41%
    12:00 +19°C° 0 mm 3 mps 576 mmHg 37%
    13:00 +20°C° 0 mm 3 mps 576 mmHg 34%
    14:00 +21°C° 0 mm 3 mps 576 mmHg 31%
    15:00 +21°C° 0 mm 3 mps 575 mmHg 34%
    16:00 +20°C° 0 mm 3 mps 575 mmHg 37%
    17:00 +19°C° 0 mm 4 mps 575 mmHg 40%
    18:00 +18°C° 0 mm 3 mps 575 mmHg 46%
    19:00 +16°C° 0 mm 2 mps 575 mmHg 51%
    20:00 +15°C° 0 mm 1 mps 575 mmHg 57%
    21:00 +14°C° 0 mm 1 mps 575 mmHg 59%
    22:00 +14°C° 0 mm 1 mps 574 mmHg 61%
    23:00 +13°C° 0 mm 1 mps 574 mmHg 63%

    23 January, Thursday

    Time Temperature Precipitation Wind Pressure Humidity
    00:00 +13°C° 0 mm 1 mps 574 mmHg 65%
    01:00 +12°C° 0 mm 1 mps 573 mmHg 66%
    02:00 +12°C° 0 mm 1 mps 572 mmHg 67%
    03:00 +11°C° 0 mm 1 mps 572 mmHg 69%
    04:00 +11°C° 0 mm 1 mps 572 mmHg 70%
    05:00 +9°C° 0 mm 0 mps 571 mmHg 72%
    06:00 +10°C° 0 mm 0 mps 573 mmHg 67%
    07:00 +12°C° 0 mm 0 mps 574 mmHg 61%
    08:00 +13°C° 0 mm 0 mps 575 mmHg 56%
    09:00 +15°C° 0 mm 1 mps 575 mmHg 51%
    10:00 +16°C° 0 mm 1 mps 575 mmHg 45%
    11:00 +19°C° 0 mm 1 mps 576 mmHg 40%
    12:00 +18°C° 0 mm 2 mps 575 mmHg 40%
    13:00 +18°C° 0 mm 2 mps 574 mmHg 40%
    14:00 +18°C° 0 mm 2 mps 574 mmHg 40%
    15:00 +17°C° 0 mm 3 mps 574 mmHg 44%
    16:00 +17°C° 0 mm 3 mps 574 mmHg 47%
    17:00 +16°C° 0 mm 3 mps 574 mmHg 51%
    18:00 +14°C° 0.3 mm 3 mps 574 mmHg 57%
    19:00 +14°C° 0.3 mm 2 mps 574 mmHg 64%
    20:00 +13°C° 0.3 mm 1 mps 574 mmHg 71%
    21:00 +13°C° 0.3 mm 1 mps 574 mmHg 72%
    22:00 +13°C° 0.3 mm 1 mps 574 mmHg 73%
    23:00 +13°C° 0.3 mm 1 mps 574 mmHg 74%

    24 January, Friday

    Time Temperature Precipitation Wind Pressure Humidity
    00:00 +13°C° 0 mm 1 mps 573 mmHg 74%
    01:00 +13°C° 0 mm 1 mps 573 mmHg 74%
    02:00 +13°C° 0 mm 1 mps 573 mmHg 74%
    03:00 +12°C° 0 mm 1 mps 573 mmHg 77%
    04:00 +12°C° 0 mm 1 mps 573 mmHg 79%
    05:00 +11°C° 0 mm 1 mps 573 mmHg 81%
    06:00 +12°C° 0.1 mm 1 mps 574 mmHg 78%
    07:00 +12°C° 0.1 mm 1 mps 574 mmHg 74%
    08:00 +13°C° 0.1 mm 1 mps 575 mmHg 70%
    09:00 +14°C° 0.1 mm 1 mps 575 mmHg 62%
    10:00 +16°C° 0.1 mm 1 mps 576 mmHg 55%
    11:00 +18°C° 0.1 mm 1 mps 576 mmHg 47%
    12:00 +19°C° 0.1 mm 1 mps 576 mmHg 45%
    13:00 +18°C° 0.1 mm 2 mps 576 mmHg 43%
    14:00 +19°C° 0.1 mm 2 mps 575 mmHg 41%
    15:00 +18°C° 0.1 mm 2 mps 575 mmHg 48%
    16:00 +17°C° 0.1 mm 2 mps 575 mmHg 54%
    17:00 +16°C° 0.1 mm 2 mps 574 mmHg 60%
    18:00 +15°C° 0.2 mm 2 mps 575 mmHg 66%
    19:00 +14°C° 0.2 mm 2 mps 575 mmHg 73%
    20:00 +12°C° 0.2 mm 3 mps 575 mmHg 79%
    21:00 +13°C° 0.1 mm 2 mps 575 mmHg 81%
    22:00 +12°C° 0.1 mm 2 mps 575 mmHg 82%
    23:00 +12°C° 0.1 mm 2 mps 575 mmHg 84%

    25 January, Saturday

    Time Temperature Precipitation Wind Pressure Humidity
    00:00 +12°C° 0 mm 2 mps 575 mmHg 85%
    01:00 +12°C° 0 mm 1 mps 574 mmHg 86%
    02:00 +11°C° 0 mm 1 mps 574 mmHg 87%
    03:00 +11°C° 0.1 mm 1 mps 574 mmHg 88%
    04:00 +11°C° 0.1 mm 1 mps 574 mmHg 89%
    05:00 +11°C° 0.1 mm 1 mps 574 mmHg 90%
    06:00 +11°C° 0 mm 1 mps 575 mmHg 85%
    07:00 +12°C° 0 mm 1 mps 576 mmHg 80%
    08:00 +13°C° 0 mm 1 mps 576 mmHg 74%
    09:00 +14°C° 0 mm 1 mps 577 mmHg 67%
    10:00 +15°C° 0 mm 1 mps 577 mmHg 60%
    11:00 +16°C° 0 mm 1 mps 578 mmHg 53%
    12:00 +17°C° 0.1 mm 2 mps 577 mmHg 51%
    13:00 +18°C° 0.1 mm 2 mps 577 mmHg 49%
    14:00 +18°C° 0.1 mm 2 mps 577 mmHg 47%
    15:00 +17°C° 0.5 mm 3 mps 576 mmHg 53%
    16:00 +16°C° 0.5 mm 3 mps 576 mmHg 59%
    17:00 +14°C° 0.5 mm 3 mps 576 mmHg 65%
    18:00 +13°C° 0.5 mm 3 mps 576 mmHg 70%
    19:00 +13°C° 0.5 mm 2 mps 576 mmHg 76%
    20:00 +12°C° 0.5 mm 2 mps 576 mmHg 81%
    21:00 +12°C° 0.1 mm 2 mps 576 mmHg 83%
    22:00 +12°C° 0.1 mm 2 mps 576 mmHg 85%
    23:00 +11°C° 0.1 mm 1 mps 576 mmHg 87%
    Show more